Villa Grove, CO

9:27 PM MDT on August 31, 2016 (GMT -0600)
Monarch Pass

Weather History for KMYP - November, 2011

Change the Weather History Date:

Tuesday, November 1, 2011

  Actual Average (KGUC) Record (KGUC)
Temperature  
Mean Temperature 32 °F -  
Max Temperature 37 °F 47 °F 64 °F (2008)
Min Temperature 26 °F 19 °F 15 °F (1999)
Degree Days  
Heating Degree Days 34    
Moisture  
Dew Point 17 °F    
Average Humidity 58    
Maximum Humidity 74    
Minimum Humidity 41    
Precipitation  
Precipitation 0.00 in - - ()
Sea Level Pressure  
Sea Level Pressure 30.27 in    
Wind  
Wind Speed 27 mph (WSW)    
Max Wind Speed 36 mph    
Max Gust Speed 51 mph    
Visibility 10 miles    
Events Snow    
Averages and records for this station are not official NWS values.
T = Trace of Precipitation, MM = Missing Value Source: NWS Daily Summary

Daily Weather History Graph

Daily Weather History Graph

Search for Another Location

Airport or City:

Trip Planner

Search our weather history database for the weather conditions in past years. The results will help you decide how hot, cold, wet, or windy it might be!

Date:

Astronomy

Nov. 01, 2011 Rise Set
Actual Time 7:31 AM MDT 6:05 PM MDT
Civil Twilight 7:04 AM MDT 6:33 PM MDT
Nautical Twilight 6:32 AM MDT 7:04 PM MDT
Astronomical Twilight 6:01 AM MDT 7:35 PM MDT
Moon 1:19 PM MDT 11:51 PM MDT
Length of Visible Light 11h 28m
Length of Day
10h 34m
Waxing Crescent, 40% of the Moon is Illuminated
Nov 1
Waxing Crescent
Nov 2
First Quarter
Nov 10
Full
Nov 18
Last Quarter
Nov 24
New

Hourly Weather History & Observations

Time (MDT) Temp. Windchill Dew Point Humidity Pressure Visibility Wind Dir Wind Speed Gust Speed Precip Events Conditions
12:09 AM 28.4 °F 12.0 °F 17.6 °F 64% 30.37 in 10.0 mi West 33.4 mph - N/A   Clear
12:29 AM 28.4 °F 11.8 °F 17.6 °F 64% 30.36 in 10.0 mi West 34.5 mph 38.0 mph N/A   Clear
12:49 AM 28.4 °F 12.0 °F 17.6 °F 64% 30.36 in 10.0 mi West 33.4 mph - N/A   Clear
1:09 AM 28.4 °F 12.3 °F 17.6 °F 64% 30.36 in 10.0 mi West 32.2 mph - N/A   Clear
1:28 AM 28.4 °F 12.5 °F 19.4 °F 69% 30.36 in 10.0 mi West 31.1 mph - N/A   Clear
1:49 AM 28.4 °F 11.8 °F 19.4 °F 69% 30.35 in 10.0 mi West 34.5 mph - N/A   Clear
2:09 AM 28.4 °F 11.8 °F 19.4 °F 69% 30.35 in 10.0 mi West 34.5 mph - N/A   Clear
2:29 AM 28.4 °F 11.8 °F 19.4 °F 69% 30.34 in 10.0 mi West 34.5 mph - N/A   Clear
2:49 AM 28.4 °F 13.0 °F 19.4 °F 69% 30.35 in 10.0 mi West 28.8 mph - N/A   Clear
3:09 AM 28.4 °F 12.5 °F 19.4 °F 69% 30.34 in 10.0 mi West 31.1 mph - N/A   Clear
3:29 AM 26.6 °F 10.0 °F 19.4 °F 74% 30.33 in 10.0 mi West 31.1 mph - N/A   Clear
3:49 AM 26.6 °F 10.0 °F 19.4 °F 74% 30.33 in 10.0 mi West 31.1 mph - N/A   Clear
4:09 AM 26.6 °F 9.8 °F 19.4 °F 74% 30.33 in 10.0 mi West 32.2 mph - N/A   Clear
4:29 AM 26.6 °F 10.3 °F 19.4 °F 74% 30.33 in 10.0 mi West 29.9 mph - N/A   Clear
4:49 AM 26.6 °F 10.6 °F 19.4 °F 74% 30.33 in 10.0 mi West 28.8 mph - N/A   Clear
5:09 AM 26.6 °F 11.1 °F 19.4 °F 74% 30.33 in 10.0 mi West 26.5 mph - N/A   Clear
5:29 AM 26.6 °F 11.7 °F 19.4 °F 74% 30.32 in 10.0 mi WSW 24.2 mph - N/A   Clear
5:49 AM 26.6 °F 11.4 °F 19.4 °F 74% 30.32 in 10.0 mi West 25.3 mph - N/A   Clear
6:09 AM 26.6 °F 11.4 °F 19.4 °F 74% 30.32 in 10.0 mi WSW 25.3 mph - N/A   Clear
6:29 AM 28.4 °F 13.8 °F 19.4 °F 69% 30.31 in 10.0 mi West 25.3 mph - N/A   Clear
6:49 AM 28.4 °F 13.8 °F 19.4 °F 69% 30.30 in 10.0 mi WSW 25.3 mph - N/A   Clear
7:09 AM 28.4 °F 14.4 °F 17.6 °F 64% 30.30 in 10.0 mi WSW 23.0 mph - N/A   Clear
7:29 AM 28.4 °F 14.1 °F 17.6 °F 64% 30.30 in 10.0 mi WSW 24.2 mph - N/A   Clear
7:49 AM 28.4 °F 14.1 °F 17.6 °F 64% 30.30 in 10.0 mi WSW 24.2 mph - N/A   Clear
8:09 AM 28.4 °F 14.4 °F 17.6 °F 64% 30.30 in 10.0 mi SW 23.0 mph - N/A   Clear
8:29 AM 28.4 °F 13.8 °F 15.8 °F 59% 30.30 in 10.0 mi SW 25.3 mph - N/A   Clear
8:49 AM 28.4 °F 14.4 °F 15.8 °F 59% 30.31 in 10.0 mi SW 23.0 mph - N/A   Clear
9:09 AM 30.2 °F 17.8 °F 15.8 °F 55% 30.30 in 10.0 mi SW 19.6 mph - N/A   Clear
9:29 AM 30.2 °F 18.1 °F 15.8 °F 55% 30.30 in 10.0 mi SW 18.4 mph - N/A   Clear
9:49 AM 32.0 °F 19.8 °F 15.8 °F 51% 30.30 in 10.0 mi SW 20.7 mph - N/A   Clear
10:09 AM 32.0 °F 19.8 °F 15.8 °F 51% 30.30 in 10.0 mi SW 20.7 mph - N/A   Clear
10:29 AM 32.0 °F 19.8 °F 15.8 °F 51% 30.30 in 10.0 mi SW 20.7 mph 25.3 mph N/A   Clear
10:49 AM 33.8 °F 22.5 °F 15.8 °F 48% 30.29 in 10.0 mi SW 19.6 mph - N/A   Clear
11:09 AM 33.8 °F 21.6 °F 15.8 °F 48% 30.28 in 10.0 mi SW 23.0 mph 29.9 mph N/A   Clear
11:29 AM 33.8 °F 21.3 °F 14.0 °F 44% 30.27 in 10.0 mi WSW 24.2 mph 32.2 mph N/A   Clear
11:49 AM 35.6 °F 23.2 °F 15.8 °F 44% 30.27 in 10.0 mi SW 26.5 mph 34.5 mph N/A   Clear
12:09 PM 33.8 °F 20.8 °F 14.0 °F 44% 30.25 in 10.0 mi WSW 26.5 mph 39.1 mph N/A   Clear
12:29 PM 35.6 °F 24.5 °F 14.0 °F 41% 30.25 in 10.0 mi SSW 20.7 mph 29.9 mph N/A   Mostly Cloudy
12:49 PM 33.8 °F 22.2 °F 14.0 °F 44% 30.23 in 10.0 mi SW 20.7 mph 34.5 mph N/A   Mostly Cloudy
1:09 PM 35.6 °F 23.7 °F 14.0 °F 41% 30.22 in 10.0 mi SSW 24.2 mph 33.4 mph N/A   Mostly Cloudy
1:29 PM 35.6 °F 25.5 °F 15.8 °F 44% 30.21 in 10.0 mi SW 17.3 mph 23.0 mph N/A   Mostly Cloudy
1:49 PM 35.6 °F 26.6 °F 14.0 °F 41% 30.20 in 10.0 mi WSW 13.8 mph 19.6 mph N/A   Overcast
2:09 PM 35.6 °F 25.5 °F 14.0 °F 41% 30.20 in 10.0 mi SW 17.3 mph 20.7 mph N/A   Overcast
2:29 PM 37.4 °F 26.1 °F 15.8 °F 41% 30.18 in 10.0 mi SSW 24.2 mph 32.2 mph N/A   Overcast
2:49 PM 35.6 °F 24.8 °F 17.6 °F 48% 30.17 in 10.0 mi SSW 19.6 mph - N/A   Overcast
3:09 PM 35.6 °F 25.2 °F 17.6 °F 48% 30.17 in 10.0 mi SSW 18.4 mph - N/A   Overcast
3:29 PM 33.8 °F 23.5 °F 17.6 °F 52% 30.17 in 10.0 mi South 16.1 mph - N/A   Overcast
3:49 PM 33.8 °F 23.2 °F 17.6 °F 52% 30.16 in 10.0 mi SSW 17.3 mph - N/A   Overcast
4:09 PM 33.8 °F 24.3 °F 19.4 °F 56% 30.17 in 10.0 mi SSW 13.8 mph 21.9 mph N/A   Overcast
4:29 PM 33.8 °F 25.3 °F 19.4 °F 56% 30.17 in 10.0 mi WSW 11.5 mph - N/A   Overcast
4:49 PM 33.8 °F 25.8 °F 15.8 °F 48% 30.16 in 10.0 mi WSW 10.4 mph - N/A   Overcast
5:09 PM 33.8 °F 22.8 °F 12.2 °F 41% 30.16 in 10.0 mi West 18.4 mph 23.0 mph N/A   Overcast
5:29 PM 32.0 °F 20.5 °F 17.6 °F 55% 30.15 in 4.0 mi WSW 18.4 mph 49.5 mph N/A Snow Light Snow
5:49 PM 32.0 °F 19.5 °F 15.8 °F 51% 30.14 in 10.0 mi West 21.9 mph 28.8 mph N/A   Overcast
6:09 PM 32.0 °F 17.6 °F 14.0 °F 48% 30.14 in 10.0 mi West 29.9 mph 39.1 mph N/A   Overcast
6:29 PM 32.0 °F 16.5 °F 10.4 °F 41% 30.14 in 10.0 mi West 35.7 mph 50.6 mph N/A   Overcast
6:49 PM 32.0 °F 16.5 °F 10.4 °F 41% 30.15 in 10.0 mi West 35.7 mph 50.6 mph N/A   Overcast
7:09 PM 32.0 °F 16.2 °F 12.2 °F 44% 30.15 in 10.0 mi West 38.0 mph 48.3 mph N/A   Overcast
7:29 PM 32.0 °F 17.4 °F 14.0 °F 48% 30.15 in 10.0 mi West 31.1 mph 40.3 mph N/A   Overcast
7:49 PM 32.0 °F 20.8 °F 14.0 °F 48% 30.15 in 10.0 mi WSW 17.3 mph 25.3 mph N/A   Overcast
8:09 PM 32.0 °F 20.8 °F 12.2 °F 44% 30.15 in 10.0 mi SW 17.3 mph - N/A   Overcast
8:29 PM 30.2 °F 16.8 °F 12.2 °F 47% 30.14 in 10.0 mi WSW 23.0 mph - N/A   Overcast
8:49 PM 30.2 °F 18.9 °F 12.2 °F 47% 30.13 in 10.0 mi SSW 16.1 mph - N/A   Scattered Clouds
9:09 PM 30.2 °F 17.4 °F 14.0 °F 51% 30.12 in 10.0 mi SSW 20.7 mph - N/A   Mostly Cloudy
9:29 PM 30.2 °F 15.2 °F 14.0 °F 51% 30.11 in 10.0 mi SW 29.9 mph 43.7 mph N/A   Overcast
9:49 PM 28.4 °F 12.0 °F 19.4 °F 69% 30.13 in 5.0 mi WSW 33.4 mph 44.9 mph N/A Snow Light Snow
10:09 PM 24.8 °F 7.9 °F 23.0 °F 93% 30.12 in 0.5 mi West 29.9 mph 39.1 mph N/A Snow Heavy Snow
10:29 PM 24.8 °F 11.9 °F 23.0 °F 93% 30.12 in 0.2 mi WSW 16.1 mph 29.9 mph N/A Snow Snow
10:49 PM 24.8 °F 10.7 °F 23.0 °F 93% 30.11 in 0.2 mi West 19.6 mph - N/A Snow Heavy Snow
11:09 PM 24.8 °F 11.9 °F 23.0 °F 93% 30.10 in 0.5 mi West 16.1 mph - N/A Snow Heavy Snow
11:29 PM 24.8 °F 15.3 °F 23.0 °F 93% 30.09 in 0.5 mi West 9.2 mph - N/A Snow Snow
11:49 PM 24.8 °F 16.1 °F 23.0 °F 93% 30.09 in 1.0 mi WSW 8.1 mph - N/A Snow Snow